When you browse on this site, cookies collect data to enhance your experience and personalize the content and advertising you see.
Visit our Privacy Policy to learn more. By continuing to use the site, you agree to this use of cookies and data.
  • In Italy
  • List of Countries
  • For 7 days
  • Water Temperature
  • Satellite Maps
  • Weather Map
  • Weather Widgets
  • user-avatar
    Login

    Hourly Weather Shimshurga

    Today, 18 January, Friday

    Time Temperature Precipitation Wind Pressure Humidity
    00:00 -10°C° 0 mm 6 mps 748 mmHg 88%
    01:00 -10°C° 0.1 mm 6 mps 748 mmHg 88%
    02:00 -10°C° 0.1 mm 6 mps 747 mmHg 88%
    03:00 -11°C° 0 mm 7 mps 746 mmHg 88%
    04:00 -9°C° 0.6 mm 7 mps 746 mmHg 88%
    05:00 -9°C° 0.6 mm 7 mps 745 mmHg 89%
    06:00 -8°C° 0.6 mm 7 mps 745 mmHg 89%
    07:00 -8°C° 0.2 mm 7 mps 745 mmHg 88%
    08:00 -8°C° 0.2 mm 7 mps 745 mmHg 87%
    09:00 -7°C° 0.2 mm 7 mps 745 mmHg 86%
    10:00 -7°C° 0 mm 7 mps 745 mmHg 86%
    11:00 -6°C° 0 mm 7 mps 746 mmHg 86%
    12:00 -6°C° 0 mm 7 mps 746 mmHg 86%
    13:00 -4°C° 0 mm 6 mps 746 mmHg 86%
    14:00 -4°C° 0 mm 6 mps 747 mmHg 86%
    15:00 -3°C° 0 mm 6 mps 747 mmHg 87%
    16:00 -2°C° 0 mm 5 mps 747 mmHg 87%
    17:00 -2°C° 0 mm 5 mps 748 mmHg 88%
    18:00 -2°C° 0 mm 5 mps 748 mmHg 89%
    19:00 -2°C° 0 mm 5 mps 748 mmHg 89%
    20:00 -2°C° 0 mm 5 mps 749 mmHg 89%
    21:00 -2°C° 0 mm 4 mps 749 mmHg 90%
    22:00 -3°C° 0 mm 4 mps 749 mmHg 90%
    23:00 -3°C° 0 mm 4 mps 749 mmHg 91%

    Tomorrow, 19 January, Saturday

    Time Temperature Precipitation Wind Pressure Humidity
    00:00 -3°C° 0 mm 4 mps 749 mmHg 91%
    01:00 -4°C° 0 mm 5 mps 748 mmHg 91%
    02:00 -4°C° 0 mm 5 mps 748 mmHg 91%
    03:00 -2°C° 0 mm 5 mps 747 mmHg 90%
    04:00 -3°C° 0.4 mm 6 mps 747 mmHg 90%
    05:00 -3°C° 0.4 mm 7 mps 746 mmHg 89%
    06:00 -3°C° 0.4 mm 7 mps 746 mmHg 89%
    07:00 -2°C° 0.2 mm 7 mps 746 mmHg 89%
    08:00 -2°C° 0.2 mm 6 mps 746 mmHg 89%
    09:00 -2°C° 0.2 mm 6 mps 746 mmHg 89%
    10:00 -2°C° 0.1 mm 6 mps 746 mmHg 88%
    11:00 -1°C° 0.1 mm 5 mps 746 mmHg 88%
    12:00 -1°C° 0.1 mm 5 mps 747 mmHg 87%
    13:00 -1°C° 0.1 mm 4 mps 747 mmHg 88%
    14:00 -2°C° 0.1 mm 4 mps 748 mmHg 88%
    15:00 -2°C° 0.1 mm 3 mps 748 mmHg 89%
    16:00 -5°C° 0 mm 3 mps 748 mmHg 91%
    17:00 -7°C° 0 mm 3 mps 749 mmHg 92%
    18:00 -8°C° 0 mm 2 mps 749 mmHg 93%
    19:00 -10°C° 0 mm 2 mps 750 mmHg 94%
    20:00 -12°C° 0 mm 2 mps 750 mmHg 95%
    21:00 -14°C° 0 mm 2 mps 750 mmHg 96%
    22:00 -15°C° 0 mm 2 mps 751 mmHg 96%
    23:00 -15°C° 0 mm 2 mps 751 mmHg 96%

    Day after tomorrow, 20 January, Sunday

    Time Temperature Precipitation Wind Pressure Humidity
    00:00 -16°C° 0 mm 2 mps 752 mmHg 97%
    01:00 -14°C° 0 mm 2 mps 752 mmHg 96%
    02:00 -13°C° 0 mm 2 mps 752 mmHg 96%
    03:00 -12°C° 0 mm 2 mps 752 mmHg 95%
    04:00 -12°C° 0 mm 2 mps 752 mmHg 95%
    05:00 -13°C° 0 mm 3 mps 753 mmHg 95%
    06:00 -13°C° 0 mm 3 mps 753 mmHg 95%
    07:00 -13°C° 0 mm 3 mps 753 mmHg 95%
    08:00 -14°C° 0 mm 3 mps 753 mmHg 94%
    09:00 -14°C° 0 mm 3 mps 753 mmHg 94%
    10:00 -13°C° 0 mm 3 mps 754 mmHg 93%
    11:00 -12°C° 0 mm 3 mps 754 mmHg 91%
    12:00 -11°C° 0 mm 4 mps 754 mmHg 89%
    13:00 -12°C° 0 mm 3 mps 754 mmHg 90%
    14:00 -12°C° 0 mm 3 mps 754 mmHg 91%
    15:00 -10°C° 0 mm 2 mps 754 mmHg 92%
    16:00 -12°C° 0 mm 3 mps 754 mmHg 92%
    17:00 -12°C° 0 mm 3 mps 754 mmHg 92%
    18:00 -12°C° 0 mm 4 mps 754 mmHg 93%
    19:00 -11°C° 0 mm 4 mps 754 mmHg 91%
    20:00 -11°C° 0 mm 4 mps 754 mmHg 90%
    21:00 -11°C° 0 mm 5 mps 754 mmHg 89%
    22:00 -11°C° 0.1 mm 5 mps 753 mmHg 89%
    23:00 -11°C° 0.1 mm 5 mps 753 mmHg 89%

    21 January, Monday

    Time Temperature Precipitation Wind Pressure Humidity
    00:00 -11°C° 0.1 mm 5 mps 753 mmHg 89%
    01:00 -11°C° 0 mm 5 mps 753 mmHg 89%
    02:00 -11°C° 0 mm 5 mps 752 mmHg 88%
    03:00 -11°C° 0 mm 5 mps 752 mmHg 87%
    04:00 -11°C° 0 mm 5 mps 752 mmHg 87%
    05:00 -11°C° 0 mm 5 mps 752 mmHg 87%
    06:00 -12°C° 0 mm 5 mps 751 mmHg 87%
    07:00 -12°C° 0 mm 5 mps 751 mmHg 87%
    08:00 -13°C° 0 mm 5 mps 751 mmHg 86%
    09:00 -13°C° 0 mm 5 mps 751 mmHg 86%
    10:00 -13°C° 0 mm 5 mps 751 mmHg 86%
    11:00 -12°C° 0 mm 5 mps 751 mmHg 86%
    12:00 -12°C° 0 mm 5 mps 751 mmHg 87%
    13:00 -11°C° 0.2 mm 5 mps 751 mmHg 88%
    14:00 -10°C° 0.2 mm 4 mps 750 mmHg 90%
    15:00 -9°C° 0.2 mm 4 mps 750 mmHg 91%
    16:00 -9°C° 0.2 mm 3 mps 749 mmHg 92%
    17:00 -9°C° 0.2 mm 3 mps 749 mmHg 93%
    18:00 -9°C° 0.2 mm 3 mps 749 mmHg 95%
    19:00 -8°C° 0.2 mm 2 mps 748 mmHg 95%
    20:00 -8°C° 0.2 mm 2 mps 748 mmHg 96%
    21:00 -8°C° 0.2 mm 2 mps 748 mmHg 97%
    22:00 -8°C° 0.2 mm 2 mps 747 mmHg 97%
    23:00 -9°C° 0.2 mm 2 mps 747 mmHg 96%

    22 January, Tuesday

    Time Temperature Precipitation Wind Pressure Humidity
    00:00 -9°C° 0.2 mm 2 mps 747 mmHg 96%
    01:00 -13°C° 0.1 mm 3 mps 747 mmHg 96%
    02:00 -14°C° 0.1 mm 3 mps 747 mmHg 96%
    03:00 -15°C° 0.1 mm 3 mps 747 mmHg 95%
    04:00 -17°C° 0 mm 3 mps 747 mmHg 96%
    05:00 -18°C° 0 mm 3 mps 748 mmHg 96%
    06:00 -21°C° 0 mm 3 mps 748 mmHg 96%
    07:00 -21°C° 0 mm 3 mps 749 mmHg 96%
    08:00 -22°C° 0 mm 3 mps 749 mmHg 97%
    09:00 -23°C° 0 mm 3 mps 750 mmHg 97%
    10:00 -23°C° 0 mm 3 mps 750 mmHg 95%
    11:00 -23°C° 0 mm 4 mps 751 mmHg 94%
    12:00 -23°C° 0 mm 4 mps 751 mmHg 92%
    13:00 -23°C° 0 mm 4 mps 751 mmHg 92%
    14:00 -22°C° 0 mm 3 mps 752 mmHg 92%
    15:00 -23°C° 0 mm 3 mps 752 mmHg 92%
    16:00 -23°C° 0 mm 3 mps 753 mmHg 93%
    17:00 -24°C° 0 mm 3 mps 753 mmHg 94%
    18:00 -25°C° 0 mm 3 mps 754 mmHg 96%
    19:00 -25°C° 0 mm 3 mps 755 mmHg 96%
    20:00 -25°C° 0 mm 2 mps 755 mmHg 97%
    21:00 -25°C° 0 mm 2 mps 755 mmHg 97%
    22:00 -26°C° 0 mm 2 mps 756 mmHg 98%
    23:00 -26°C° 0 mm 2 mps 756 mmHg 98%

    23 January, Wednesday

    Time Temperature Precipitation Wind Pressure Humidity
    00:00 -26°C° 0 mm 2 mps 756 mmHg 98%
    01:00 -26°C° 0 mm 2 mps 757 mmHg 98%
    02:00 -26°C° 0 mm 2 mps 757 mmHg 98%
    03:00 -26°C° 0 mm 2 mps 757 mmHg 98%
    04:00 -25°C° 0 mm 2 mps 758 mmHg 98%
    05:00 -24°C° 0 mm 2 mps 758 mmHg 97%
    06:00 -24°C° 0 mm 2 mps 758 mmHg 97%
    07:00 -23°C° 0 mm 2 mps 759 mmHg 97%
    08:00 -23°C° 0 mm 2 mps 759 mmHg 97%
    09:00 -21°C° 0 mm 2 mps 759 mmHg 97%
    10:00 -20°C° 0 mm 2 mps 760 mmHg 96%
    11:00 -19°C° 0 mm 2 mps 760 mmHg 95%
    12:00 -18°C° 0 mm 2 mps 760 mmHg 94%
    13:00 -19°C° 0 mm 2 mps 761 mmHg 94%
    14:00 -19°C° 0 mm 2 mps 761 mmHg 95%
    15:00 -20°C° 0 mm 2 mps 761 mmHg 96%
    16:00 -21°C° 0 mm 2 mps 762 mmHg 96%
    17:00 -23°C° 0 mm 2 mps 762 mmHg 97%
    18:00 -24°C° 0 mm 2 mps 762 mmHg 97%
    19:00 -24°C° 0 mm 2 mps 763 mmHg 97%
    20:00 -25°C° 0 mm 2 mps 763 mmHg 98%
    21:00 -25°C° 0 mm 2 mps 764 mmHg 98%
    22:00 -25°C° 0 mm 2 mps 764 mmHg 98%
    23:00 -25°C° 0 mm 2 mps 764 mmHg 97%
    Show more